Nantucket, MA

2:59 AM EDT on June 25, 2017 (GMT -0400)
Nantucket Memorial

Weather History for KACK - October, 2011

Change the Weather History Date:

Saturday, October 15, 2011

  Actual Average Record
Temperature  
Mean Temperature 63 °F -  
Max Temperature 66 °F 63 °F 75 °F (1971)
Min Temperature 60 °F 48 °F 36 °F (1999)
Degree Days  
Heating Degree Days 2    
Growing Degree Days 13 (Base 50)    
Moisture  
Dew Point 50 °F    
Average Humidity 64    
Maximum Humidity 82    
Minimum Humidity 50    
Precipitation  
Precipitation 0.00 in - - ()
Sea Level Pressure  
Sea Level Pressure 29.65 in    
Wind  
Wind Speed 25 mph (SW)    
Max Wind Speed 34 mph    
Max Gust Speed 43 mph    
Visibility 10 miles    
Events Rain    
Averages and records for this station are not official NWS values.
T = Trace of Precipitation, MM = Missing Value Source: NWS Daily Summary

Daily Weather History Graph

Daily Weather History Graph

Search for Another Location

Airport or City:

Trip Planner

Search our weather history database for the weather conditions in past years. The results will help you decide how hot, cold, wet, or windy it might be!

Date:

Astronomy

Oct. 15, 2011 Rise Set
Actual Time 6:51 AM EDT 5:59 PM EDT
Civil Twilight 6:23 AM EDT 6:27 PM EDT
Nautical Twilight 5:51 AM EDT 6:59 PM EDT
Astronomical Twilight 5:19 AM EDT 7:31 PM EDT
Moon 7:51 PM EDT (10/15) 10:15 AM EDT (10/15)
Length of Visible Light 12h 03m
Length of Day
11h 08m
Waning Gibbous, 89% of the Moon is Illuminated
Oct 15
Waning Gibbous
Oct 19
Last Quarter
Oct 26
New
Nov 2
First Quarter
Nov 10
Full

Hourly Weather History & Observations

Time (EDT) Temp. Dew Point Humidity Pressure Visibility Wind Dir Wind Speed Gust Speed Precip Events Conditions
12:53 AM 60.8 °F 55.4 °F 82% 29.49 in 9.0 mi WSW 26.5 mph 34.5 mph N/A   Clear
1:53 AM 61.0 °F 54.0 °F 78% 29.52 in 9.0 mi WSW 24.2 mph 29.9 mph N/A   Scattered Clouds
2:53 AM 61.0 °F 53.1 °F 75% 29.54 in 10.0 mi WSW 27.6 mph 35.7 mph N/A   Scattered Clouds
3:53 AM 60.1 °F 51.1 °F 72% 29.56 in 10.0 mi WSW 26.5 mph 34.5 mph N/A   Clear
4:53 AM 60.1 °F 48.9 °F 67% 29.59 in 10.0 mi WSW 23.0 mph 32.2 mph N/A   Clear
5:53 AM 60.1 °F 48.0 °F 64% 29.62 in 10.0 mi WSW 21.9 mph 32.2 mph N/A   Clear
6:53 AM 60.1 °F 50.0 °F 69% 29.63 in 9.0 mi WSW 20.7 mph 28.8 mph N/A   Clear
7:53 AM 61.0 °F 48.9 °F 64% 29.66 in 10.0 mi WSW 24.2 mph 31.1 mph N/A   Clear
8:53 AM 63.0 °F 50.0 °F 63% 29.68 in 10.0 mi WSW 26.5 mph 32.2 mph N/A   Clear
9:53 AM 64.0 °F 50.0 °F 60% 29.69 in 10.0 mi WSW 20.7 mph 29.9 mph N/A   Clear
10:53 AM 64.9 °F 51.1 °F 61% 29.69 in 10.0 mi SW 18.4 mph - N/A   Clear
11:53 AM 63.0 °F 51.1 °F 65% 29.68 in 10.0 mi SSW 21.9 mph 29.9 mph 0.00 in Rain Light Rain
12:53 PM 66.0 °F 46.9 °F 50% 29.67 in 10.0 mi SW 34.5 mph 42.6 mph 0.00 in   Clear
1:53 PM 66.0 °F 46.9 °F 50% 29.67 in 10.0 mi SW 31.1 mph 40.3 mph N/A   Clear
2:53 PM 64.9 °F 50.0 °F 58% 29.66 in 10.0 mi SW 25.3 mph 32.2 mph N/A   Clear
3:53 PM 64.9 °F 48.9 °F 56% 29.65 in 10.0 mi SW 20.7 mph - N/A   Partly Cloudy
4:53 PM 64.0 °F 48.9 °F 58% 29.66 in 10.0 mi SW 23.0 mph 33.4 mph N/A   Clear
5:53 PM 62.6 °F 48.2 °F 59% 29.67 in 9.0 mi WSW 28.8 mph 34.5 mph N/A   Partly Cloudy
6:53 PM 62.1 °F 50.0 °F 65% 29.69 in 10.0 mi SW 20.7 mph 27.6 mph N/A   Scattered Clouds
7:53 PM 62.6 °F 48.2 °F 59% 29.70 in 10.0 mi SW 24.2 mph 31.1 mph N/A   Partly Cloudy
8:53 PM 63.0 °F 51.1 °F 65% 29.72 in 10.0 mi SW 26.5 mph 34.5 mph N/A   Clear
9:53 PM 62.6 °F 51.8 °F 68% 29.74 in 10.0 mi SW 21.9 mph - N/A   Clear
10:53 PM 62.1 °F 50.0 °F 65% 29.74 in 10.0 mi SW 21.9 mph 28.8 mph N/A   Clear
11:53 PM 62.1 °F 51.1 °F 67% 29.76 in 10.0 mi WSW 17.3 mph 27.6 mph N/A   Clear